EW2785 Weather Reports


Display with metric or nautical units.
time (UTC)temp
F
wind
direction
speed
MPH
gust
MPH
rain 1hr
in
rain 24hr
in
rain mn
in
humidity
%
barometer
mb
20260506181514 44 334 0.0 9.0 0.10 0.72 0.64 94 1006.4
20260506180015 44 258 0.0 8.0 0.11 0.70 0.62 94 1006.1
20260506174505 44 227 1.0 5.0 0.12 0.68 0.60 94 1006.0
20260506173004 44 243 1.0 8.0 0.13 0.65 0.56 93 1006.2
20260506171503 44 313 2.0 7.0 0.14 0.62 0.54 93 1006.7
20260506170112 44 252 2.0 5.0 0.14 0.59 0.51 93 1006.7
20260506164623 45 15 2.0 6.0 0.14 0.56 0.48 93 1006.2
20260506163103 45 339 0.0 6.0 0.13 0.52 0.44 93 1006.5
20260506161555 45 180 0.0 9.0 0.12 0.48 0.40 93 1006.7
20260506160106 45 245 2.0 7.0 0.12 0.45 0.37 93 1006.8
20260506154554 46 274 2.0 5.0 0.12 0.42 0.34 93 1006.9
20260506153051 46 334 1.0 6.0 0.12 0.39 0.31 93 1007.0
20260506151550 46 302 0.0 3.0 0.11 0.36 0.28 93 1007.2
20260506150049 46 339 1.0 6.0 0.09 0.33 0.25 93 1007.5
20260506144547 46 288 1.0 4.0 0.08 0.30 0.22 93 1007.5
20260506143046 46 265 2.0 9.0 0.08 0.27 0.19 93 1007.6
20260506141604 47 9 1.0 6.0 0.08 0.25 0.17 93 1007.3
20260506140042 47 338 3.0 8.0 0.09 0.24 0.16 93 1007.3
20260506134540 47 336 2.0 6.0 0.09 0.22 0.14 93 1007.3
20260506133037 48 234 1.0 8.0 0.07 0.19 0.11 93 1007.1
20260506131538 48 293 0.0 8.0 0.06 0.17 0.09 93 1007.3
20260506130033 50 342 2.0 8.0 0.04 0.15 0.07 93 1007.3
20260506124531 50 262 1.0 7.0 0.02 0.13 0.05 93 1007.7
20260506123036 51 297 0.0 11.0 0.00 0.11 0.03 93 1007.4
20260506121522 53 10 3.0 8.0 0.00 0.11 0.03 93 1007.2
20260506120034 53 284 1.0 5.0 0.00 0.11 0.03 93 1007.2
20260506114525 53 291 1.0 4.0 0.00 0.11 0.03 93 1007.1
20260506113020 53 268 1.0 4.0 0.00 0.11 0.03 93 1007.2
20260506111520 53 304 0.0 3.0 0.00 0.11 0.03 93 1007.2
20260506110024 53 333 0.0 2.0 0.00 0.11 0.03 93 1006.9
20260506104519 53 335 0.0 0.0 0.00 0.11 0.03 93 1006.8
20260506103026 53 335 0.0 0.0 0.00 0.11 0.03 93 1006.8
20260506101520 53 335 0.0 0.0 0.00 0.11 0.03 93 1006.7
20260506100017 53 334 0.0 1.0 0.00 0.11 0.03 93 1007.0
20260506094527 53 336 0.0 0.0 0.00 0.11 0.03 92 1006.7
20260506093023 53 336 0.0 0.0 0.00 0.11 0.03 92 1007.0
20260506091512 53 336 0.0 0.0 0.00 0.11 0.03 92 1006.9
20260506090010 54 336 0.0 0.0 0.00 0.11 0.03 92 1007.1
20260506084508 54 336 0.0 0.0 0.00 0.11 0.03 92 1007.2
20260506083006 54 336 0.0 1.0 0.00 0.11 0.03 92 1007.5
20260506081505 55 336 0.0 0.0 0.00 0.11 0.03 92 1007.8
20260506073105 55 336 0.0 0.0 0.01 0.11 0.03 92 1007.5
20260506071602 56 336 0.0 0.0 0.01 0.11 0.03 92 1007.6
20260506070116 56 336 0.0 1.0 0.01 0.11 0.03 92 1007.7
20260506061553 57 351 0.0 0.0 0.00 0.10 0.02 92 1007.8
20260506044554 57 61 0.0 0.0 0.06 0.10 0.02 91 1008.2
20260506043046 57 61 0.0 0.0 0.05 0.09 0.01 91 1008.1
20260506041550 58 61 0.0 1.0 0.05 0.09 0.01 91 1007.7
20260506040043 57 61 0.0 0.0 0.03 0.07 0.07 91 1007.9
20260506034538 57 42 0.0 1.0 0.00 0.04 0.04 90 1007.7
20260506033036 57 42 0.0 0.0 0.00 0.04 0.04 90 1007.5
20260506031548 57 42 0.0 0.0 0.00 0.04 0.04 90 1007.5
20260506030036 57 42 0.0 1.0 0.00 0.04 0.04 90 1007.2
20260506024536 57 42 0.0 2.0 0.00 0.04 0.04 89 1006.9
20260506023033 58 42 0.0 0.0 0.00 0.04 0.04 89 1007.0
20260506021532 58 42 0.0 0.0 0.00 0.04 0.04 89 1007.0
20260506020031 58 42 0.0 0.0 0.00 0.04 0.04 89 1007.2
20260506014530 58 42 0.0 0.0 0.00 0.04 0.04 88 1007.1
20260506013027 58 42 0.0 1.0 0.00 0.04 0.04 87 1006.7
20260506011528 58 42 0.0 0.0 0.00 0.04 0.04 86 1006.3
20260506010026 59 42 0.0 0.0 0.00 0.04 0.04 85 1006.0
20260506004531 60 42 0.0 0.0 0.00 0.04 0.04 85 1006.0
20260506003025 61 42 0.0 0.0 0.00 0.04 0.04 85 1005.9
20260506001524 61 42 0.0 0.0 0.00 0.04 0.04 83 1005.9
20260506000024 62 42 0.0 0.0 0.00 0.04 0.04 82 1005.8
20260505234552 62 42 0.0 3.0 0.00 0.04 0.04 81 1005.7
20260505233022 63 98 0.0 2.0 0.00 0.04 0.04 79 1006.1
20260505231523 63 107 0.0 3.0 0.00 0.04 0.04 77 1006.0
20260505230023 64 169 0.0 1.0 0.00 0.04 0.04 75 1006.0
20260505224529 64 169 0.0 0.0 0.00 0.04 0.04 75 1005.7
20260505223021 64 169 0.0 3.0 0.00 0.04 0.04 74 1005.2
20260505221521 64 119 1.0 3.0 0.00 0.04 0.04 73 1005.1
20260505220020 64 179 1.0 10.0 0.01 0.04 0.04 76 1005.5
20260505214523 64 163 1.0 4.0 0.01 0.04 0.04 82 1005.6
20260505213018 64 180 1.0 5.0 0.01 0.04 0.04 84 1005.3
20260505211518 64 199 0.0 3.0 0.01 0.04 0.04 84 1004.8
20260505210020 64 16 0.0 1.0 0.01 0.03 0.03 84 1004.1
20260505204524 63 16 1.0 5.0 0.03 0.03 0.03 83 1003.8
20260505203017 63 67 2.0 4.0 0.03 0.03 0.03 83 1005.1
20260505201517 64 178 0.0 6.0 0.03 0.03 0.03 76 1005.0
20260505200023 68 204 3.0 15.0 0.02 0.02 0.02 69 1004.6
20260505194514 76 233 2.0 19.0 0.00 0.00 0.00 44 1002.5
20260505193013 77 196 8.0 23.0 0.00 0.00 0.00 38 1001.9
20260505191513 77 109 4.0 10.0 0.00 0.00 0.00 39 1001.7
20260505190013 78 142 5.0 13.0 0.00 0.00 0.00 39 1001.6
20260505184521 78 159 5.0 20.0 0.00 0.00 0.00 38 1001.8
20260505183031 80 119 4.0 11.0 0.00 0.00 0.00 39 1002.0